Location: Unspecified
(40.7945°N, 111.1337°W)
Time: 02:38:14
(UTC-06:00)

Cosmos 1674 - Visible Passes

Search period start: 21 October 2017 00:00
Search period end: 31 October 2017 00:00
Orbit: 497 x 523 km, 82.5° (Epoch: 20 October)

Date Brightness Start Highest point End Pass type
(mag) Time Alt. Az. Time Alt. Az. Time Alt. Az.
21 Oct 4.3 06:13:58 10° SSE 06:17:23 36° E 06:20:49 10° NNE visible
22 Oct 4.8 05:57:26 10° SSE 06:00:37 28° E 06:03:50 10° NNE visible
23 Oct 5.2 05:41:00 10° SE 05:43:52 22° E 05:46:46 10° NE visible
23 Oct 3.9 07:16:29 10° SW 07:19:22 21° WNW 07:22:16 10° NNW visible
24 Oct 5.6 05:24:41 10° SE 05:27:08 17° E 05:29:36 10° NE visible
24 Oct 3.5 06:59:19 10° SW 07:02:30 27° WNW 07:05:42 10° NNW visible
25 Oct 5.9 05:08:35 10° ESE 05:10:24 13° E 05:12:15 10° ENE visible
25 Oct 3.2 06:42:14 10° SW 06:45:38 34° WNW 06:49:04 10° N visible
26 Oct 6.1 04:53:10 10° E 04:53:41 10° E 04:54:12 10° ENE visible
26 Oct 2.8 06:25:14 10° SSW 06:28:47 45° W 06:32:22 10° N visible
27 Oct 2.5 06:11:21 51° SW 06:11:57 60° W 06:15:39 10° N visible
28 Oct 3.7 05:56:37 34° N 05:56:37 34° N 05:58:52 10° N visible
29 Oct 5.0 05:41:17 15° NNE 05:41:17 15° NNE 05:42:03 10° N visible
